Погода в Снежном

Украина / Донецкая область     48°01′10″N   38°45′37″E
темп.,
°C
ветер,
м/с
пор.,
м/с
влажн.,
%
обл.,
%
осадки,
мм/ч
давл.,
гПа
погр.,
м
17 мая, пн
пн1700:00+19вюв615441 0.0 1005351
03:00+17в615520 0.0 1005346
06:00+16вюв513597 0.0 1005342
09:00+20ююв795540 0.0 1006566
12:00+23ююв5655100 0.0 1006885
15:00+22ю4562100 0.0 1006752
18:00+19ю5777100 0.0 1007371
21:00+17ююз3786100 0.5 1008218
18 мая, вт
вт1800:00+15юз61194100 2.9 1008329
03:00+14ююз4997100 3.4 1008357
06:00+14ю2598100 2.2 1008299
09:00+17ю458474 2.6 1008632
12:00+19ююз676799 0.8 10081296
15:00+19ююз786166 0.9 10091488
18:00+18ююз587145 0.1 1009704
21:00+14ю38890 0.2 1009163
19 мая, ср
ср1900:00+13ююв379138 0.0 1009165
03:00+12ююв239398 0.0 100851
06:00+13юв2794100 0.1 1007264
09:00+13юз5895100 1.2 1008508
12:00+15ю4684100 2.2 1009702
15:00+17ююз6871100 3.3 10091303
18:00+16ююз7107325 1.0 1009904
21:00+12ююз612903 1.0 1010452
20 мая, чт
чт2000:00+11ююз5119510 0.0 1010405
03:00+11ююз4997100 0.0 1010374
06:00+12юз6108888 0.4 1010660
09:00+12зюз6118951 0.8 1011676
12:00+18зюз7105895 0.1 10121770
15:00+18юз686885 0.1 1012916
18:00+19ююз466415 0.0 1012622
21:00+13ю238598 0.0 101340
21 мая, пт
пт2100:00+12вюв118336 0.0 101310
03:00+11всв118616 0.0 101310
06:00+12в268892 0.0 1013188
09:00+19вюв4664100 0.0 1012538
12:00+23вюв3452100 0.0 1011735
15:00+25вюв3351100 0.0 10111048
18:00+23всв35624 0.0 1011759
21:00+18ссв328372 0.0 101119